Latest Weather Observations for Coober Pedy Airport

IDS60801

Issued at 11:05 pm CST Friday 1 August 2014 (issued every 30 minutes, with the page automatically refreshed every 10 minutes)

About weather observations | Map of weather stations | Latest weather observations for SA | Other Formats
Station Details ID: 016090 Name: COOBER PEDY AIRPORT Lat: -29.03 Lon: 134.72 Height: 225.0 m
Data from the previous 72 hours. | See also: Recent months at Coober Pedy Airport
Date/Time
CST
Temp
°C
App
Temp
°C
Dew
Point
Rel
Hum
%
Delta-T
°C
Wind Press
QNH
hPa
Press
MSL
hPa
Rain
since 9 am
mm
Dir
 
Spd
km/h
Gust
km/h
Spd
kts
Gust
kts
01/11:00pm 8.3 3.3 -1.5 50 3.7 ESE 15 15 8 8 1029.0 - 0.0
01/10:30pm 8.5 4.6 -1.6 49 3.9 SE 9 11 5 6 1028.9 1028.8 0.0
01/10:00pm 9.6 5.4 -1.1 47 4.2 SE 11 13 6 7 1028.8 - 0.0
01/09:30pm 9.8 5.2 -1.0 47 4.3 SE 13 15 7 8 1028.6 1028.5 0.0
01/09:00pm 10.5 6.2 -1.5 43 4.7 SE 11 19 6 10 1028.3 1028.2 0.0
01/08:30pm 11.9 7.2 -1.6 39 5.4 SSE 13 17 7 9 1028.1 1028.0 0.0
01/08:00pm 12.1 7.5 -1.4 39 5.4 SSE 13 19 7 10 1027.8 - 0.0
01/07:30pm 11.9 8.0 -1.3 40 5.3 SSE 9 13 5 7 1027.4 1027.3 0.0
01/07:00pm 13.1 8.0 -1.6 36 6.0 SSE 15 24 8 13 1027.1 - 0.0
01/06:30pm 13.1 8.1 -1.2 37 5.8 SSE 15 17 8 9 1026.9 1026.8 0.0
01/06:00pm 13.8 8.0 -1.4 35 6.2 SSW 19 28 10 15 1026.5 1026.4 0.0
01/05:30pm 14.1 9.1 -1.5 34 6.4 S 15 17 8 9 1026.4 1026.3 0.0
01/05:00pm 14.5 8.2 -1.2 34 6.5 S 22 28 12 15 1026.1 - 0.0
01/04:30pm 14.7 9.7 -1.4 33 6.6 S 15 20 8 11 1025.9 1025.8 0.0
01/04:00pm 14.6 8.7 -1.1 34 6.5 S 20 30 11 16 1025.8 - 0.0
01/03:30pm 15.2 8.6 -0.1 35 6.5 SSW 24 33 13 18 1025.6 1025.5 0.0
01/03:00pm 15.7 9.5 -0.5 33 6.9 S 22 37 12 20 1025.4 1025.3 0.0
01/02:30pm 14.7 8.9 -0.2 36 6.3 S 20 24 11 13 1025.6 1025.5 0.0
01/02:00pm 14.3 8.2 0.5 39 5.9 SSW 22 30 12 16 1025.5 - 0.0
01/01:30pm 14.8 7.6 1.0 39 6.0 SSW 28 37 15 20 1025.7 1025.6 0.0
01/01:00pm 14.0 7.2 0.6 40 5.8 S 26 39 14 21 1026.0 - 0.0
01/12:30pm 13.8 7.0 1.1 42 5.5 S 26 35 14 19 1026.4 1026.3 0.0
01/12:00pm 13.4 5.9 1.4 44 5.2 S 30 48 16 26 1026.8 1026.6 0.0
01/11:55am 13.8 6.9 2.4 46 5.1 SSW 28 48 15 26 1026.8 - 0.0
01/11:30am 13.2 6.4 3.0 50 4.6 S 28 37 15 20 1026.9 1026.8 0.0
01/11:00am 12.5 5.0 3.2 53 4.2 SSW 32 41 17 22 1026.9 - 0.0
01/10:30am 12.4 4.6 2.8 52 4.2 SSW 33 43 18 23 1026.8 1026.6 0.0
01/10:00am 12.2 4.7 3.4 55 4.0 SSW 32 46 17 25 1026.8 - 0.0
01/09:30am 11.6 4.2 3.9 59 3.5 SW 32 41 17 22 1026.1 1026.0 0.0
01/09:00am 10.8 4.1 3.6 61 3.2 SW 28 35 15 19 1025.4 1025.5 0.0
01/08:30am 10.1 4.1 3.6 64 2.9 SW 24 32 13 17 1025.0 1025.1 0.0
01/08:00am 9.2 3.9 3.2 66 2.6 SW 20 26 11 14 1024.7 - 0.0
01/07:30am 8.6 2.9 3.0 68 2.4 WSW 22 28 12 15 1024.3 1024.4 0.0
01/07:00am 8.3 3.2 3.2 70 2.2 WSW 19 22 10 12 1023.9 - 0.0
01/06:30am 7.7 3.0 3.0 72 2.0 SW 17 20 9 11 1023.6 1023.6 0.0
01/06:00am 7.3 2.9 2.8 73 1.9 SW 15 17 8 9 1023.3 1023.3 0.0
01/05:30am 8.3 3.2 3.2 70 2.2 SW 19 24 10 13 1023.0 1023.0 0.0
01/05:00am 9.2 2.8 3.0 65 2.7 SW 26 32 14 17 1022.7 - 0.0
01/04:30am 10.2 2.7 3.3 62 3.0 SW 32 41 17 22 1022.4 1022.4 0.0
01/04:00am 9.9 3.1 3.0 62 3.0 SW 28 39 15 21 1022.3 - 0.0
01/03:30am 10.6 1.2 2.2 56 3.6 SSW 41 50 22 27 1021.6 1021.7 0.0
01/03:21am 10.9 3.2 2.5 56 3.7 SSW 32 50 17 27 1021.6 - 0.0
01/03:00am 10.9 3.4 4.6 65 2.9 SW 33 41 18 22 1021.5 1021.6 0.0
01/02:30am 10.9 1.9 4.4 64 2.9 SSW 41 54 22 29 1021.3 1021.4 0.0
01/02:00am 11.0 2.5 5.3 68 2.6 SSW 39 52 21 28 1021.2 - 0.0
01/01:30am 12.0 4.6 3.8 57 3.7 SW 32 44 17 24 1021.1 1021.2 0.0
01/01:00am 12.4 3.4 4.4 58 3.7 SW 41 52 22 28 1020.7 - 0.0
01/12:30am 12.8 2.6 3.2 52 4.3 SW 46 57 25 31 1020.4 1020.5 0.0
01/12:00am 13.2 4.6 4.6 56 4.0 SW 39 54 21 29 1020.3 1020.4 0.0
 
Date/Time
CST
Temp
°C
App
Temp
°C
Dew
Point
Rel
Hum
%
Delta-T
°C
Wind Press
QNH
hPa
Press
MSL
hPa
Rain
since 9 am
mm
Dir
 
Spd
km/h
Gust
km/h
Spd
kts
Gust
kts
31/11:30pm 13.7 4.4 4.8 55 4.2 SW 43 54 23 29 1020.2 1020.2 0.0
31/11:00pm 14.1 6.2 4.1 51 4.6 SW 35 44 19 24 1019.8 - 0.0
31/10:30pm 13.8 6.8 5.9 59 3.8 SW 32 44 17 24 1019.4 1019.4 0.0
31/10:00pm 13.8 7.1 5.4 57 4.0 SW 30 37 16 20 1019.0 - 0.0
31/09:30pm 14.3 7.7 6.2 58 3.9 SW 30 37 16 20 1018.8 1018.8 0.0
31/09:00pm 14.8 7.9 6.4 57 4.1 SW 32 41 17 22 1018.5 1018.5 0.0
31/08:30pm 15.3 8.2 6.6 56 4.3 SSW 33 43 18 23 1018.2 1018.2 0.0
31/08:00pm 16.3 8.5 6.7 53 4.8 SW 37 48 20 26 1017.8 - 0.0
31/07:59pm 16.3 8.4 6.4 52 4.9 SW 37 56 20 30 1017.8 - 0.0
31/07:51pm 16.8 7.7 5.7 48 5.4 SW 43 56 23 30 1017.5 - 0.0
31/07:30pm 16.9 11.6 2.9 39 6.5 WSW 20 26 11 14 1017.1 1017.2 0.0
31/07:00pm 17.8 11.3 2.5 36 7.1 WSW 26 33 14 18 1016.6 - 0.0
31/06:30pm 18.3 10.8 1.3 32 7.7 WSW 30 37 16 20 1016.1 1016.1 0.0
31/06:00pm 19.4 9.8 0.9 29 8.4 WSW 41 52 22 28 1015.6 1015.6 0.0
31/05:30pm 20.4 11.7 1.8 29 8.6 WSW 37 48 20 26 1015.2 1015.2 0.0
31/05:00pm 21.2 12.0 1.5 27 9.2 WSW 39 50 21 27 1014.9 - 0.0
31/04:30pm 22.1 12.0 0.6 24 9.9 SW 43 56 23 30 1014.3 1014.3 0.0
31/04:00pm 22.8 13.3 -0.6 21 10.6 WSW 39 54 21 29 1014.2 - 0.0
31/03:30pm 23.2 13.7 -1.0 20 10.9 WSW 39 52 21 28 1014.1 1014.1 0.0
31/03:00pm 23.9 13.5 -1.8 18 11.5 WSW 43 52 23 28 1014.1 1014.1 0.0
31/02:30pm 23.9 13.4 -1.1 19 11.3 WSW 44 57 24 31 1014.1 1014.1 0.0
31/02:00pm 23.6 13.1 -1.3 19 11.2 WSW 44 63 24 34 1014.3 - 0.0
31/01:44pm 23.8 13.5 -1.2 19 11.3 W 43 61 23 33 1014.4 - 0.0
31/01:30pm 23.7 12.8 -1.3 19 11.2 WSW 46 61 25 33 1014.5 1014.5 0.0
31/01:00pm 24.2 13.8 -1.6 18 11.6 W 43 57 23 31 1014.7 - 0.0
31/12:30pm 23.8 14.1 -1.9 18 11.4 W 39 54 21 29 1015.4 1015.4 0.0
31/12:00pm 23.7 15.3 -1.3 19 11.2 W 33 48 18 26 1015.9 1015.9 0.0
31/11:30am 23.1 14.6 -1.8 19 11.0 W 33 44 18 24 1016.4 1016.4 0.0
31/11:00am 22.0 14.6 -0.7 22 10.2 W 28 37 15 20 1016.7 - 0.0
31/10:30am 20.6 14.0 -0.7 24 9.4 WNW 24 32 13 17 1016.9 1017.0 0.0
31/10:00am 19.3 12.9 0.8 29 8.4 WNW 24 32 13 17 1017.2 - 0.0
31/09:30am 17.5 11.6 1.5 34 7.2 WNW 22 28 12 15 1017.2 1017.3 0.0
31/09:00am 15.6 10.0 1.0 37 6.4 WNW 20 26 11 14 1017.0 1017.1 0.0
31/08:30am 13.4 7.9 0.4 41 5.5 WNW 19 24 10 13 1017.0 1017.1 0.0
31/08:00am 11.4 6.3 0.5 47 4.6 WNW 17 20 9 11 1016.9 - 0.0
31/07:30am 8.7 4.3 0.4 56 3.4 WNW 13 17 7 9 1016.9 1017.0 0.0
31/07:00am 8.2 3.4 0.4 58 3.1 WNW 15 19 8 10 1016.7 - 0.0
31/06:30am 8.9 4.1 0.4 55 3.4 W 15 17 8 9 1016.7 1016.8 0.0
31/06:00am 11.4 5.9 0.8 48 4.5 NW 19 20 10 11 1016.3 1016.3 0.0
31/05:30am 9.9 5.2 0.8 53 3.8 WNW 15 19 8 10 1016.3 1016.3 0.0
31/05:00am 11.7 6.6 0.8 47 4.6 NW 17 19 9 10 1016.5 - 0.0
31/04:30am 12.6 7.1 0.7 44 5.0 NW 19 20 10 11 1016.3 1016.3 0.0
31/04:00am 12.9 7.4 0.6 43 5.2 NNW 19 20 10 11 1016.6 - 0.0
31/03:30am 13.1 7.6 0.5 42 5.3 NNW 19 20 10 11 1016.7 1016.8 0.0
31/03:00am 11.2 6.0 0.3 47 4.5 NNW 17 19 9 10 1017.0 1017.1 0.0
31/02:30am 11.3 6.9 0.1 46 4.6 N 13 15 7 8 1017.2 1017.3 0.0
31/02:00am 12.4 8.4 0.5 44 5.0 NNW 11 17 6 9 1017.5 - 0.0
31/01:30am 13.5 7.9 0.2 40 5.6 NNW 19 20 10 11 1017.7 1017.7 0.0
31/01:00am 13.2 7.6 -0.1 40 5.6 NNW 19 20 10 11 1017.8 - 0.0
31/12:30am 12.7 7.0 -0.5 40 5.4 NNW 19 20 10 11 1017.8 1017.8 0.0
31/12:00am 13.4 7.7 -0.6 38 5.8 NNW 19 20 10 11 1017.9 1017.9 0.0
 
Date/Time
CST
Temp
°C
App
Temp
°C
Dew
Point
Rel
Hum
%
Delta-T
°C
Wind Press
QNH
hPa
Press
MSL
hPa
Rain
since 9 am
mm
Dir
 
Spd
km/h
Gust
km/h
Spd
kts
Gust
kts
30/11:30pm 13.3 7.7 -0.3 39 5.7 NNW 19 20 10 11 1018.1 1018.1 0.0
30/11:00pm 13.2 7.5 -0.8 38 5.8 NNW 19 20 10 11 1018.5 - 0.0
30/10:30pm 13.3 7.6 -1.1 37 5.9 NW 19 20 10 11 1018.7 1018.7 0.0
30/10:00pm 13.5 8.1 -1.6 35 6.1 NW 17 19 9 10 1018.9 - 0.0
30/09:30pm 13.9 8.5 -1.7 34 6.3 NW 17 19 9 10 1019.0 1019.0 0.0
30/09:00pm 13.7 8.2 -2.3 33 6.4 NNW 17 19 9 10 1019.0 1019.0 0.0
30/08:30pm 14.5 9.3 -2.8 30 6.9 NW 15 17 8 9 1019.1 1019.1 0.0
30/08:00pm 15.4 10.6 -2.5 29 7.3 NW 13 13 7 7 1019.1 - 0.0
30/07:30pm 16.4 12.4 -2.6 27 7.8 WNW 9 11 5 6 1019.1 1019.1 0.0
30/07:00pm 17.0 13.0 -2.6 26 8.1 NW 9 9 5 5 1019.1 - 0.0
30/06:30pm 17.9 13.5 -2.4 25 8.5 W 11 13 6 7 1019.0 1019.0 0.0
30/06:00pm 19.5 14.7 -2.2 23 9.2 W 13 15 7 8 1018.9 1018.9 0.0
30/05:30pm 21.8 17.4 -2.8 19 10.5 W 11 15 6 8 1018.8 1018.8 0.0
30/05:00pm 22.6 16.5 -3.7 17 11.2 WNW 19 28 10 15 1019.0 - 0.0
30/04:30pm 22.9 16.6 -4.2 16 11.4 WNW 20 28 11 15 1019.1 1019.1 0.0
30/04:00pm 23.1 16.9 -4.9 15 11.7 W 19 24 10 13 1019.1 - 0.0
30/03:30pm 23.5 17.6 -5.5 14 12.0 NW 17 22 9 12 1019.4 1019.4 0.0
30/03:00pm 23.3 16.4 -5.7 14 11.9 NW 22 28 12 15 1019.7 1019.7 0.0
30/02:30pm 23.2 16.4 -4.8 15 11.7 NW 22 26 12 14 1020.0 1020.0 0.0
30/02:00pm 22.6 16.3 -3.7 17 11.2 W 20 26 11 14 1020.4 - 0.0
30/01:30pm 22.3 17.1 -3.1 18 10.9 W 15 19 8 10 1020.9 1021.0 0.0
30/01:00pm 22.2 16.6 -2.5 19 10.7 WNW 17 28 9 15 1021.5 - 0.0
30/12:30pm 22.0 16.8 -2.7 19 10.6 NW 15 24 8 13 1022.2 1022.2 0.0
30/12:00pm 21.6 17.5 -0.4 23 9.8 NW 11 22 6 12 1022.8 1022.8 0.0
30/11:30am 20.8 16.7 -0.5 24 9.4 WNW 11 20 6 11 1023.3 1023.3 0.0
30/11:00am 19.7 15.7 0.2 27 8.7 WNW 11 15 6 8 1023.7 - 0.0
30/10:30am 18.3 14.7 0.4 30 7.9 W 9 11 5 6 1023.9 1023.9 0.0
30/10:00am 16.9 13.3 0.5 33 7.2 WSW 9 13 5 7 1024.0 - 0.0
30/09:30am 15.1 11.5 0.5 37 6.3 W 9 13 5 7 1024.0 1024.0 0.0
30/09:00am 13.8 10.3 1.1 42 5.5 W 9 13 5 7 1024.0 1024.0 0.0
30/08:30am 11.9 8.4 1.3 48 4.5 W 9 11 5 6 1023.8 1023.8 0.0
30/08:00am 9.5 5.4 -0.1 51 3.9 W 11 13 6 7 1023.7 - 0.0
30/07:30am 8.9 4.7 -0.7 51 3.8 W 11 11 6 6 1023.4 1023.4 0.0
30/07:00am 8.5 3.9 -0.8 52 3.7 W 13 13 7 7 1023.2 - 0.0
30/06:30am 8.6 4.0 -0.7 52 3.7 W 13 13 7 7 1023.0 1023.0 0.0
30/06:00am 9.1 5.0 -0.5 51 3.8 W 11 15 6 8 1022.9 1022.9 0.0
30/05:30am 9.8 5.2 -0.7 48 4.2 WNW 13 13 7 7 1022.7 1022.7 0.0
30/05:00am 9.8 5.2 -0.7 48 4.2 WNW 13 15 7 8 1022.5 - 0.0
30/04:30am 10.7 6.2 -0.4 46 4.5 WNW 13 15 7 8 1022.6 1022.6 0.0
30/04:00am 10.3 5.8 -0.5 47 4.4 WNW 13 13 7 7 1022.8 - 0.0
30/03:30am 10.8 6.7 0.0 47 4.4 WNW 11 11 6 6 1022.9 1022.9 0.0
30/03:00am 9.8 5.7 -0.1 50 4.0 WNW 11 11 6 6 1023.0 1023.0 0.0
30/02:30am 10.3 6.7 0.3 50 4.1 W 9 11 5 6 1023.2 1023.2 0.0
30/02:00am 10.0 6.0 0.3 51 4.0 W 11 13 6 7 1023.4 - 0.0
30/01:30am 10.2 6.6 0.8 52 3.9 W 9 11 5 6 1023.6 1023.6 0.0
30/01:00am 10.4 6.4 0.4 50 4.1 W 11 11 6 6 1023.6 - 0.0
30/12:30am 11.0 7.5 1.3 51 4.1 W 9 9 5 5 1023.5 1023.5 0.0
30/12:00am 11.3 8.3 1.8 52 4.1 WSW 7 7 4 4 1023.6 1023.6 0.0
 
Date/Time
CST
Temp
°C
App
Temp
°C
Dew
Point
Rel
Hum
%
Delta-T
°C
Wind Press
QNH
hPa
Press
MSL
hPa
Rain
since 9 am
mm
Dir
 
Spd
km/h
Gust
km/h
Spd
kts
Gust
kts
29/11:30pm 11.5 7.7 1.7 51 4.2 W 11 11 6 6 1023.9 1023.9 0.0

Other Formats:

Comma delimited format used in spreadsheet applications
http://www.bom.gov.au/fwo/IDS60801/IDS60801.95458.axf

JavaScript Object Notation format (JSON) in row-major order
http://www.bom.gov.au/fwo/IDS60801/IDS60801.95458.json